Location: Unspecified
(52.0000°N, 4.4000°E)
Time: 21:39:25
(UTC+00:00)

Nadezhda 3 Rocket - Pass Details

Date: 14 May 2025
Orbit: 957 x 997 km, 82.9° (Epoch: 15 June)

Event Time Altitude Azimuth Distance (km) Brightness Sun altitude
Exits shadow 22:44:17 29° 176° (S) 1,676 4.7 -18.1°
Maximum altitude 22:47:35 75° 96° (E) 1,002 4.0 -18.3°
Drops below altitude 10° 22:53:48 10° 13° (NNE) 2,729 7.3 -18.5°
Sets 22:56:20 0° 12° (NNE) 3,686 8.3 -18.5°
